Location: ?
(35.4064°N, 139.3593°E)
Time: 18:07:33
(UTC+00:00)

Hubble Space Telescope - Pass Details

Date: 12 December 2025
Orbit: 479 x 482 km, 28.5° (Epoch: 12 January)

Event Time Altitude Azimuth Distance (km) Brightness Sun altitude
Rises 08:16:58 0° 239° (WSW) 2,526 6.3 -9.4°
Reaches altitude 10° 08:19:27 10° 225° (SW) 1,647 4.4 -9.9°
Maximum altitude 08:22:32 24° 171° (S) 1,039 2.4 -10.5°
Drops below altitude 10° 08:25:36 10° 116° (ESE) 1,647 2.9 -11.1°
Enters shadow 08:25:58 - 113° (ESE) 1,763 3.0 -11.2°
